DW5721 Weather Reports


time (UTC)temp
C
wind
direction
speed
KPH
gust
KPH
rain 1hr
cm
rain 24hr
cm
rain mn
cm
humidity
%
barometer
mb
20260506150747 8 215 0.0 0.0 0.00 0.99 0.94 80 1007.8
20260506145737 7 215 0.0 0.0 0.00 0.99 0.94 82 1007.9
20260506141219 6 225 0.0 6.4 0.00 0.99 0.94 86 1008.2
20260506135004 6 236 0.0 0.0 0.10 0.99 0.94 87 1008.0
20260506133954 6 236 0.0 0.0 0.18 0.97 0.91 86 1008.1
20260506133010 7 157 0.0 0.0 0.64 0.94 0.89 86 1008.3
20260506132013 7 217 0.0 0.0 0.71 0.84 0.79 85 1008.3
20260506131018 7 302 0.0 0.0 0.64 0.74 0.69 84 1007.7
20260506125954 7 343 1.6 8.0 0.61 0.66 0.61 82 1007.2
20260506122717 10 205 0.0 6.4 0.00 0.38 0.33 80 1006.6
20260506121717 10 81 0.0 0.0 0.00 0.38 0.33 81 1006.1
20260506120701 10 99 3.2 11.3 0.00 0.38 0.33 81 1005.9
20260506115626 10 44 3.2 9.7 0.00 0.38 0.33 83 1005.6
20260506114615 10 87 3.2 6.4 0.00 0.38 0.33 82 1005.5
20260506113552 10 50 6.4 12.9 0.00 0.36 0.30 81 1005.5
20260506112543 10 22 4.8 11.3 0.00 0.36 0.30 79 1005.5
20260506111551 10 44 4.8 9.7 0.00 0.36 0.30 81 1005.5
20260506110511 10 62 1.6 9.7 0.00 0.36 0.30 82 1005.4
20260506105523 10 42 3.2 12.9 0.00 0.36 0.30 82 1005.5
20260506104506 10 36 4.8 12.9 0.00 0.36 0.30 80 1005.6
20260506102341 10 51 1.6 11.3 0.00 0.36 0.30 79 1005.3
20260506101349 10 17 3.2 9.7 0.00 0.36 0.30 80 1005.2
20260506095223 10 19 0.0 4.8 0.00 0.36 0.30 79 1005.1
20260506094233 10 55 0.0 0.0 0.00 0.36 0.30 83 1005.4
20260506093218 10 51 0.0 0.0 0.00 0.36 0.30 83 1005.3
20260506092234 10 51 0.0 0.0 0.00 0.36 0.30 81 1005.4
20260506091245 9 50 0.0 0.0 0.00 0.36 0.30 84 1005.3
20260506090228 8 19 0.0 0.0 0.00 0.36 0.30 83 1005.6
20260506084022 8 19 0.0 0.0 0.00 0.36 0.30 88 1005.6
20260506083011 8 19 0.0 0.0 0.00 0.36 0.30 89 1005.7
20260506081940 8 19 0.0 0.0 0.00 0.36 0.30 89 1005.7
20260506072607 7 5 0.0 0.0 0.00 0.36 0.28 89 1006.0
20260506071630 7 306 0.0 0.0 0.08 0.36 0.28 89 1006.1
20260506062346 7 28 0.0 0.0 0.23 0.23 0.18 91 1006.2
20260506061412 7 28 0.0 0.0 0.00 0.18 0.13 91 1006.2
20260506060339 7 28 0.0 0.0 0.00 0.18 0.10 91 1006.1
20260506044233 6 28 0.0 0.0 0.00 0.18 0.10 90 1006.5
20260506043254 6 28 0.0 0.0 0.00 0.18 0.10 90 1006.5
20260506042248 6 28 0.0 0.0 0.00 0.18 0.10 90 1006.6
20260506041258 6 254 0.0 0.0 0.00 0.18 0.10 90 1006.7
20260506040303 6 254 0.0 0.0 0.00 0.18 0.10 90 1006.7